Regional Weather Roundup
Issued by NWS Jackson, KY

Home | Current Version | Previous Version | Graphics & Text | Print | Product List | Glossary On
Versions: 1 2 3 4 5 6 7 8 9 10 11 12 13 14 15 16 17 18 19 20 21 22 23 24 25 26 27 28 29 30 31 32 33 34 35 36 37 38 39 40 41 42 43 44 45 46 47 48 49 50
639
ASUS43 KJKL 181010
RWRJKL

EAST KENTUCKY HOURLY WEATHER ROUNDUP
NATIONAL WEATHER SERVICE JACKSON KY
500 AM EST SAT NOV 18 2017

NOTE: "FAIR" INDICATES FEW OR NO CLOUDS BELOW 12,000 FEET WITH
NO SIGNIFICANT WEATHER AND/OR OBSTRUCTIONS TO VISIBILITY.

* THESE REPORTS ARE NOT UNDER NWS QUALITY CONTROL AND MAY NOT
  REPORT WEATHER SUCH AS PRECIPITATION AND FOG.

KYZ079-080-083-085-087-088-110-112-115-119-120-181100
...EASTERN KENTUCKY...

CITY           SKY/WX    TMP DP  RH WIND       PRES   REMARKS
JACKSON        CLOUDY    57  35  43 S9G21     29.78F
LONDON         CLOUDY    58  37  45 S13       29.83F
SOMERSET*      CLOUDY    57  37  47 S10G21    29.83F
MONTICELLO*    CLOUDY    59  41  51 S9G17     29.83F
WILLIAMSBURG*  PTSUNNY   57  39  51 S16       29.86F
MIDDLESBORO*   CLOUDY    56  39  53 SW8       29.92F
HARLAN APT*    CLOUDY    59  32  36 S7        29.90F
PIKE CO APT*   CLOUDY    56  29  36 S10       29.82F
BIG SANDY APT* CLOUDY    57  29  34 S13       29.79F
MOREHEAD APT*  CLOUDY    57  39  51 S13G21    29.75F
$$

KYZ035-036-041-042-044-050-067-078-099-181100
...CENTRAL KENTUCKY...

CITY           SKY/WX    TMP DP  RH WIND       PRES   REMARKS
MT STERLING*   CLOUDY    59  43  55 SW12G24   29.74F
FLEMING/MASON* CLOUDY    55  44  67 SW15G25   29.70F
DANVILLE*      CLOUDY    59  41  51 SW18G26   29.75F
LEXINGTON      CLOUDY    59  43  55 S20G33    29.71F
FRANKFORT      CLOUDY    60  44  55 S15G31    29.68F
LOUISVILLE     CLOUDY    63  47  55 S15G25    29.66F
LEBANON*         N/A     59  45  58 S24G37    29.72F
GLASGOW*       CLOUDY    62  48  61 S18G28    29.73F
BOWLING GREEN  CLOUDY    61  47  59 S22G31    29.73F
$$

KYZ091>093-OHZ055-061-077-WVZ005-015-034-035-042-181100
...SOUTHERN OHIO/WEST VIRGINIA...

CITY           SKY/WX    TMP DP  RH WIND       PRES   REMARKS
COVINGTON      CLOUDY    55  45  68 S17G25    29.63F
COLUMBUS       LGT RAIN  46  42  86 S9        29.65F
DAYTON         CLOUDY    51  44  77 S20       29.60F
WILMINGTON     CLOUDY    51  46  83 S18G26    29.63F
HUNTINGTON     CLOUDY    54  29  38 S12G20    29.73F
CHARLESTON     CLOUDY    56  28  34 S8        29.76F
PINEVILLE*     CLOUDY    41  37  85 MISG      29.92F
BECKLEY        CLOUDY    48  25  40 SE6       29.86F
BLUEFIELD      CLOUDY    50  17  27 SW5       29.90F
LOGAN CO APT*    N/A     55  28  35 S8G16     29.81F
$$

VAZ002-007-008-TNZ017-027-036-066-071-181100
...SOUTHWEST VIRGINIA/EAST TENNESSEE...

CITY           SKY/WX    TMP DP  RH WIND       PRES   REMARKS
WISE*          PTCLDY    50  32  50 SW9       29.91F
JONESVILLE*    CLOUDY    41  39  93 CALM      29.96F
ABINGDON*      PTCLDY    43  33  66 CALM      29.94F
BRISTOL        CLOUDY    41  38  89 CALM      29.94F
MORRISTOWN*    CLOUDY    45  39  81 CALM      29.94F
SEVIERVILLE*   SUNNY     37  37 100 CALM      29.95F
KNOXVILLE      CLOUDY    46  42  86 CALM      29.93F
LAFOLLETTE*    CLOUDY    57  39  51 S17G25    29.95F
OAK RIDGE      CLOUDY    51  42  71 W5        29.96F
CROSSVILLE     CLOUDY    52  39  61 S8G18     29.92F
NASHVILLE      CLOUDY    61  47  59 S20G29    29.79F
$$

...KEY TO REMARKS...
VSB - VISIBILITY IN MILES
WCI - WIND CHILL INDEX
HX  - HEAT INDEX

$$




USA.gov is the U.S. government's official web portal to all federal, state and local government web resources and services.